GW7168 Weather Reports


time (UTC)temp
C
wind
direction
speed
KPH
gust
KPH
rain 1hr
cm
rain 24hr
cm
rain mn
cm
humidity
%
barometer
mb
20260504190508 23 171 1.6 6.4 0.00 0.00 0.00 43 1010.1
20260504190009 23 295 1.6 6.4 0.00 0.00 0.00 42 1010.2
20260504185508 23 341 3.2 4.8 0.00 0.00 0.00 43 1010.2
20260504185008 23 210 1.6 4.8 0.00 0.00 0.00 45 1010.2
20260504184509 23 269 1.6 4.8 0.00 0.00 0.00 45 1010.2
20260504184004 23 309 1.6 6.4 0.00 0.00 0.00 47 1010.2
20260504183509 23 192 1.6 6.4 0.00 0.00 0.00 48 1010.3
20260504183022 22 280 1.6 4.8 0.00 0.00 0.00 48 1010.3
20260504182504 22 292 3.2 9.7 0.00 0.00 0.00 49 1010.3
20260504182007 22 277 3.2 9.7 0.00 0.00 0.00 48 1010.4
20260504181522 22 231 1.6 3.2 0.00 0.00 0.00 50 1010.4
20260504181010 21 323 1.6 3.2 0.00 0.00 0.00 50 1010.4
20260504180504 21 247 0.0 3.2 0.00 0.00 0.00 49 1010.4
20260504180019 21 259 0.0 6.4 0.00 0.00 0.00 49 1010.5
20260504175510 21 294 1.6 6.4 0.00 0.00 0.00 49 1010.5
20260504175005 21 269 0.0 0.0 0.00 0.00 0.00 51 1010.5
20260504174513 20 350 0.0 0.0 0.00 0.00 0.00 51 1010.5
20260504174007 20 310 0.0 0.0 0.00 0.00 0.00 53 1010.5
20260504173510 19 297 0.0 0.0 0.00 0.00 0.00 54 1010.5
20260504173014 19 360 0.0 0.0 0.00 0.00 0.00 55 1010.5
20260504172504 19 272 0.0 0.0 0.00 0.00 0.00 56 1010.6
20260504172009 18 5 0.0 0.0 0.00 0.00 0.00 57 1010.6
20260504171526 18 326 0.0 0.0 0.00 0.00 0.00 59 1010.6
20260504171012 18 306 0.0 0.0 0.00 0.00 0.00 60 1010.6
20260504170508 17 299 0.0 0.0 0.00 0.00 0.00 61 1010.7
20260504151009 11 44 0.0 0.0 0.00 0.00 0.00 89 1011.2
20260504150509 10 44 0.0 0.0 0.00 0.00 0.00 89 1011.2
20260504141010 10 44 0.0 0.0 0.00 0.00 0.00 87 1011.0
20260504140507 9 44 0.0 0.0 0.00 0.00 0.00 88 1010.9
20260504130508 10 44 0.0 0.0 0.00 0.00 0.00 86 1010.6
20260504110505 11 44 0.0 0.0 0.00 0.00 0.00 82 1010.5
20260504100505 11 44 0.0 0.0 0.00 0.00 0.00 78 1010.6
20260504082008 13 44 0.0 0.0 0.00 0.00 0.00 74 1010.4
20260504081524 13 44 0.0 0.0 0.00 0.00 0.00 74 1010.4
20260504081003 13 44 0.0 3.2 0.00 0.00 0.00 73 1010.4
20260504080509 13 44 0.0 3.2 0.00 0.00 0.00 73 1010.5
20260504050506 18 44 0.0 1.6 0.00 0.00 0.00 61 1010.2
20260504050005 18 44 0.0 3.2 0.00 0.00 0.00 60 1010.1
20260504045503 18 44 0.0 3.2 0.00 0.00 0.00 57 1010.1
20260504045004 19 44 0.0 3.2 0.00 0.00 0.00 52 1010.1
20260504044505 19 44 0.0 3.2 0.00 0.00 0.00 52 1010.1
20260504044005 19 44 0.0 3.2 0.00 0.00 0.00 54 1010.1
20260504043504 19 44 0.0 3.2 0.00 0.00 0.00 52 1010.1
20260504043004 19 53 0.0 3.2 0.00 0.00 0.00 54 1010.0
20260504042504 20 79 0.0 3.2 0.00 0.00 0.00 55 1010.0
20260504042008 20 79 0.0 3.2 0.00 0.00 0.00 55 1010.0
20260504041517 20 79 0.0 3.2 0.00 0.00 0.00 56 1010.0
20260504041003 20 79 0.0 3.2 0.00 0.00 0.00 52 1010.0
20260504040504 20 79 0.0 3.2 0.00 0.00 0.00 51 1010.0
20260504040016 20 79 0.0 3.2 0.00 0.00 0.00 49 1010.1
20260504035504 21 79 0.0 3.2 0.00 0.00 0.00 50 1010.0
20260504035004 21 79 0.0 3.2 0.00 0.00 0.00 48 1010.0
20260504034514 21 79 0.0 3.2 0.00 0.00 0.00 50 1010.1
20260504034008 21 79 0.0 3.2 0.00 0.00 0.00 52 1010.1
20260504033503 21 79 0.0 3.2 0.00 0.00 0.00 52 1010.1
20260504033009 22 79 0.0 3.2 0.00 0.00 0.00 52 1010.1
20260504032508 22 79 0.0 3.2 0.00 0.00 0.00 49 1010.2
20260504032010 22 79 0.0 3.2 0.00 0.00 0.00 48 1010.1
20260504031504 23 79 0.0 3.2 0.00 0.00 0.00 48 1010.0
20260504031007 23 79 0.0 3.2 0.00 0.00 0.00 45 1010.1
20260504030509 24 59 0.0 3.2 0.00 0.00 0.00 43 1010.2
20260504030004 24 59 0.0 1.6 0.00 0.00 0.00 42 1010.3
20260504025507 25 54 0.0 0.0 0.00 0.00 0.00 37 1010.3
20260504025007 25 50 0.0 0.0 0.00 0.00 0.00 40 1010.3
20260504024522 25 50 0.0 1.6 0.00 0.00 0.00 36 1010.3
20260504024004 26 49 0.0 3.2 0.00 0.00 0.00 38 1010.3
20260504023508 26 49 0.0 3.2 0.00 0.00 0.00 38 1010.3
20260504023018 27 342 0.0 3.2 0.00 0.00 0.00 30 1010.3
20260504022504 27 351 0.0 3.2 0.00 0.00 0.00 32 1010.3
20260504022006 27 20 0.0 3.2 0.00 0.00 0.00 33 1010.3
20260504021513 27 20 0.0 3.2 0.00 0.00 0.00 30 1010.3
20260504021005 28 20 0.0 6.4 0.00 0.00 0.00 31 1010.4
20260504020506 28 350 1.6 6.4 0.00 0.00 0.00 28 1010.3
20260504020008 28 85 0.0 3.2 0.00 0.00 0.00 27 1010.4
20260504015509 28 352 0.0 6.4 0.00 0.00 0.00 26 1010.4
20260504015010 28 26 0.0 6.4 0.00 0.00 0.00 28 1010.4
20260504014516 28 352 0.0 3.2 0.00 0.00 0.00 27 1010.5
20260504014009 28 132 0.0 3.2 0.00 0.00 0.00 25 1010.5
20260504013508 28 106 0.0 4.8 0.00 0.00 0.00 25 1010.5
20260504013010 28 360 1.6 9.7 0.00 0.00 0.00 23 1010.5
20260504012505 28 78 4.8 9.7 0.00 0.00 0.00 22 1010.7
20260504012008 28 45 3.2 12.9 0.00 0.00 0.00 23 1010.7
20260504011528 28 74 3.2 12.9 0.00 0.00 0.00 21 1010.7
20260504011006 28 49 3.2 14.5 0.00 0.00 0.00 21 1010.7
20260504010505 29 51 0.0 9.7 0.00 0.00 0.00 23 1010.8
20260504010025 29 17 3.2 16.1 0.00 0.00 0.00 23 1010.8
20260504005503 28 336 6.4 16.1 0.00 0.00 0.00 22 1010.8
20260504005007 28 32 1.6 8.0 0.00 0.00 0.00 24 1010.7
20260504004521 28 80 1.6 14.5 0.00 0.00 0.00 22 1010.8
20260504004008 28 60 1.6 14.5 0.00 0.00 0.00 23 1010.9
20260504003508 29 64 3.2 9.7 0.00 0.00 0.00 23 1010.9
20260504003016 29 352 0.0 17.7 0.00 0.00 0.00 23 1010.9
20260504002505 29 75 3.2 17.7 0.00 0.00 0.00 22 1010.9
20260504002012 29 67 3.2 14.5 0.00 0.00 0.00 20 1010.9
20260504001512 29 60 1.6 9.7 0.00 0.00 0.00 23 1011.0
20260504001009 29 28 1.6 9.7 0.00 0.00 0.00 19 1011.0
20260504000510 29 22 3.2 14.5 0.00 0.00 0.00 21 1011.1
20260504000011 29 335 1.6 14.5 0.00 0.00 0.00 22 1011.2
20260503235508 29 350 3.2 14.5 0.00 0.00 0.00 21 1011.3
20260503235008 29 12 6.4 17.7 0.00 0.00 0.00 23 1011.4
20260503234528 29 26 4.8 17.7 0.00 0.00 0.00 22 1011.4
20260503234005 29 340 6.4 16.1 0.00 0.00 0.00 20 1011.4
20260503233508 30 336 1.6 14.5 0.00 0.00 0.00 19 1011.4
20260503233024 30 40 4.8 17.7 0.00 0.00 0.00 20 1011.5
20260503232505 29 25 1.6 17.7 0.00 0.00 0.00 19 1011.5
20260503232005 30 345 1.6 16.1 0.00 0.00 0.00 21 1011.5
20260503231522 29 45 4.8 16.1 0.00 0.00 0.00 21 1011.6
20260503231009 29 31 1.6 12.9 0.00 0.00 0.00 20 1011.7
20260503230508 30 86 4.8 16.1 0.00 0.00 0.00 23 1011.8
20260503230020 30 342 1.6 16.1 0.00 0.00 0.00 21 1011.8
20260503225509 30 5 6.4 16.1 0.00 0.00 0.00 20 1011.8
20260503225011 30 22 3.2 16.1 0.00 0.00 0.00 21 1011.9
20260503224516 30 33 1.6 6.4 0.00 0.00 0.00 21 1011.9
20260503224010 30 90 1.6 4.8 0.00 0.00 0.00 23 1012.0
20260503223510 30 340 1.6 8.0 0.00 0.00 0.00 22 1012.0
20260503223022 30 79 3.2 8.0 0.00 0.00 0.00 23 1012.0
20260503222504 30 71 0.0 6.4 0.00 0.00 0.00 23 1012.0
20260503222012 29 40 1.6 12.9 0.00 0.00 0.00 25 1012.1
20260503221527 29 10 1.6 12.9 0.00 0.00 0.00 22 1012.2
20260503221010 29 51 4.8 16.1 0.00 0.00 0.00 24 1012.2
20260503220509 29 55 3.2 16.1 0.00 0.00 0.00 24 1012.2
20260503220034 29 59 0.0 8.0 0.00 0.00 0.00 26 1012.2
20260503215505 29 71 1.6 16.1 0.00 0.00 0.00 24 1012.2
20260503215011 29 352 1.6 16.1 0.00 0.00 0.00 26 1012.3
20260503214522 28 48 3.2 11.3 0.00 0.00 0.00 25 1012.3
20260503214008 28 348 4.8 14.5 0.00 0.00 0.00 24 1012.3
20260503213509 28 14 6.4 14.5 0.00 0.00 0.00 24 1012.3
20260503213032 28 350 1.6 14.5 0.00 0.00 0.00 26 1012.4
20260503212507 28 345 3.2 14.5 0.00 0.00 0.00 24 1012.5
20260503212011 28 5 8.0 12.9 0.00 0.00 0.00 23 1012.5
20260503211523 28 360 1.6 9.7 0.00 0.00 0.00 28 1012.6
20260503211010 28 24 3.2 12.9 0.00 0.00 0.00 29 1012.7
20260503210509 28 360 3.2 12.9 0.00 0.00 0.00 28 1012.8
20260503210018 28 331 1.6 9.7 0.00 0.00 0.00 30 1012.9
20260503205512 27 5 3.2 8.0 0.00 0.00 0.00 29 1012.9
20260503205010 27 25 4.8 9.7 0.00 0.00 0.00 28 1013.0
20260503204541 27 338 3.2 9.7 0.00 0.00 0.00 29 1013.0
20260503204007 27 5 3.2 8.0 0.00 0.00 0.00 29 1013.0
20260503203507 27 21 4.8 12.9 0.00 0.00 0.00 31 1013.0
20260503203026 27 293 4.8 12.9 0.00 0.00 0.00 29 1013.1
20260503202512 27 5 1.6 9.7 0.00 0.00 0.00 33 1013.2
20260503202011 26 331 3.2 8.0 0.00 0.00 0.00 32 1013.3
20260503201510 26 360 4.8 12.9 0.00 0.00 0.00 35 1013.4
20260503201007 26 360 4.8 17.7 0.00 0.00 0.00 35 1013.5
20260503200509 26 18 3.2 17.7 0.00 0.00 0.00 35 1013.6
20260503200006 26 34 6.4 12.9 0.00 0.00 0.00 35 1013.7
20260503195506 25 14 6.4 14.5 0.00 0.00 0.00 37 1013.8
20260503195010 25 41 6.4 14.5 0.00 0.00 0.00 37 1013.9
20260503194524 25 352 4.8 9.7 0.00 0.00 0.00 39 1013.9
20260503194004 25 323 6.4 9.7 0.00 0.00 0.00 41 1014.0
20260503193510 25 349 3.2 8.0 0.00 0.00 0.00 42 1014.0
20260503193020 25 352 1.6 8.0 0.00 0.00 0.00 43 1014.0
20260503192504 25 32 4.8 8.0 0.00 0.00 0.00 42 1014.1
20260503192006 24 346 4.8 8.0 0.00 0.00 0.00 41 1014.0
20260503191517 24 342 1.6 4.8 0.00 0.00 0.00 41 1014.0
20260503191013 23 275 0.0 4.8 0.00 0.00 0.00 41 1014.1